Location: Sark
(49.4440°N, 2.3620°W)
Time: 17:42:50
(UTC+01:00)

ISS - Visible Passes

Search period start: 16 July 2018 00:00
Search period end: 26 July 2018 00:00
Orbit: 402 x 408 km, 51.6° (Epoch: 17 July)

Date Brightness Start Highest point End Pass type
(mag) Time Alt. Az. Time Alt. Az. Time Alt. Az.
16 Jul -4.0 01:31:55 81° S 01:31:58 82° SSE 01:35:16 10° ENE visible
16 Jul -3.1 03:05:21 10° W 03:08:36 56° N 03:11:52 10° E visible
17 Jul -2.6 00:41:12 31° E 00:41:12 31° E 00:43:10 10° ENE visible
17 Jul -3.3 02:13:49 15° W 02:16:27 59° N 02:19:44 10° ENE visible
17 Jul -3.5 03:49:51 10° WNW 03:53:09 71° NNE 03:56:28 10° E visible
17 Jul -1.7 23:50:12 16° E 23:50:12 16° E 23:50:59 10° E visible
18 Jul -3.6 01:22:46 29° W 01:24:18 70° NNW 01:27:36 10° ENE visible
18 Jul -3.3 02:57:45 10° WNW 03:01:00 60° N 03:04:17 10° E visible
18 Jul -3.7 04:34:18 10° WNW 04:37:32 54° SSW 04:40:46 10° SE visible
18 Jul -1.6 22:58:10 13° E 22:58:10 13° E 22:58:40 10° E visible
19 Jul -3.9 00:30:34 28° WSW 00:32:11 89° NNW 00:35:29 10° ENE visible
19 Jul -3.1 02:05:35 10° WNW 02:08:51 56° N 02:12:06 10° E visible
19 Jul -3.9 03:42:10 10° WNW 03:45:28 79° SSW 03:48:45 10° ESE visible
19 Jul -2.1 22:02:10 10° S 22:04:05 15° SE 22:05:59 10° ESE visible
19 Jul -3.9 23:36:50 10° WSW 23:40:04 65° SSE 23:43:21 10° ENE visible
20 Jul -3.2 01:13:23 10° W 01:16:39 57° N 01:19:55 10° ENE visible
20 Jul -3.7 02:50:02 10° WNW 02:53:20 78° NNE 02:56:39 10° ESE visible
20 Jul -3.0 04:26:43 10° W 04:29:39 29° SW 04:32:33 10° SSE visible
20 Jul -3.5 22:44:54 10° SW 22:48:01 42° SSE 22:51:10 10° ENE visible
21 Jul -3.5 00:21:11 10° W 00:24:27 65° NNW 00:27:44 10° ENE visible
21 Jul -3.4 01:57:54 10° WNW 02:01:10 63° N 02:04:27 10° E visible
21 Jul -3.6 03:34:27 10° WNW 03:37:38 46° SSW 03:40:48 10° SE visible
21 Jul -2.9 21:53:10 10° SSW 21:56:01 27° SE 21:58:52 10° E visible
21 Jul -3.8 23:28:59 10° WSW 23:32:16 81° NNW 23:35:35 10° ENE visible
22 Jul -3.2 01:05:42 10° WNW 01:08:58 57° N 01:12:13 10° E visible
22 Jul -4.0 02:42:16 10° WNW 02:45:32 69° SSW 02:48:49 10° ESE visible
22 Jul -2.2 04:19:30 10° W 04:21:35 16° SW 04:23:40 10° S visible
22 Jul -3.9 22:36:51 10° WSW 22:40:07 75° SSE 22:43:25 10° ENE visible
23 Jul -3.2 00:13:29 10° W 00:16:44 56° N 00:19:59 10° ENE visible
23 Jul -3.8 01:50:06 10° WNW 01:53:15 79° NW 01:53:15 79° NW visible
23 Jul -3.6 21:44:50 10° SW 21:48:01 50° SSE 21:51:13 10° ENE visible
23 Jul -3.3 23:21:15 10° W 23:24:30 61° N 23:27:46 10° ENE visible
24 Jul -3.6 00:57:56 10° WNW 01:01:13 68° NNE 01:01:37 59° ENE visible
24 Jul -3.6 22:29:00 10° W 22:32:17 74° NNW 22:35:34 10° ENE visible
25 Jul -3.3 00:05:43 10° WNW 00:08:58 58° N 00:10:36 26° ENE visible
25 Jul -1.6 01:42:15 10° WNW 01:43:13 18° WNW 01:43:13 18° WNW visible
25 Jul -3.9 21:36:47 10° WSW 21:40:04 84° SSE 21:43:22 10° ENE visible
25 Jul -3.2 23:13:27 10° W 23:16:42 56° N 23:19:48 11° E visible
